Time,TemperatureF,DewpointF,PressureIn,WindDirection,WindDirectionDegrees,WindSpeedMPH,WindSpeedGustMPH,Humidity,HourlyPrecipIn,Conditions,Clouds,dailyrainin,SoftwareType,DateUTC
2013-10-02 00:08:00,60.4,56.0,30.15,SE,146,0.0,0.0,85,0.00,,,0.00,weatherlink.com 1.10,2013-10-02 04:08:00,
2013-10-02 00:23:00,61.0,56.0,30.15,SSE,147,0.0,1.0,83,0.00,,,0.00,weatherlink.com 1.10,2013-10-02 04:23:00,
2013-10-02 00:38:00,60.9,56.0,30.15,SE,146,0.0,1.0,83,0.00,,,0.00,weatherlink.com 1.10,2013-10-02 04:38:00,
2013-10-02 00:53:00,60.7,56.0,30.15,SE,146,0.0,4.0,84,0.00,,,0.00,weatherlink.com 1.10,2013-10-02 04:53:00,
2013-10-02 01:08:00,60.8,56.0,30.15,SE,146,2.0,3.0,83,0.00,,,0.00,weatherlink.com 1.10,2013-10-02 05:08:00,
2013-10-02 01:23:00,60.9,56.0,30.14,SE,146,0.0,5.0,83,0.00,,,0.00,weatherlink.com 1.10,2013-10-02 05:23:00,
2013-10-02 01:38:00,60.7,56.0,30.15,SSE,147,1.0,4.0,83,0.00,,,0.00,weatherlink.com 1.10,2013-10-02 05:38:00,
2013-10-02 01:53:00,60.3,56.0,30.14,SE,144,2.0,7.0,84,0.00,,,0.00,weatherlink.com 1.10,2013-10-02 05:53:00,
2013-10-02 02:08:00,60.0,56.0,30.14,SE,146,1.0,7.0,85,0.00,,,0.00,weatherlink.com 1.10,2013-10-02 06:08:00,
2013-10-02 02:23:00,60.3,56.0,30.14,SE,144,1.0,5.0,84,0.00,,,0.00,weatherlink.com 1.10,2013-10-02 06:23:00,
2013-10-02 02:38:00,60.3,56.0,30.14,SE,144,3.0,7.0,84,0.00,,,0.00,weatherlink.com 1.10,2013-10-02 06:38:00,
2013-10-02 02:53:00,60.4,55.0,30.14,SE,145,5.0,6.0,83,0.00,,,0.00,weatherlink.com 1.10,2013-10-02 06:53:00,
2013-10-02 03:08:00,60.5,55.0,30.13,SSE,158,0.0,4.0,82,0.00,,,0.00,weatherlink.com 1.10,2013-10-02 07:08:00,
2013-10-02 03:23:00,60.1,55.0,30.12,SSE,154,0.0,6.0,82,0.00,,,0.00,weatherlink.com 1.10,2013-10-02 07:23:00,
2013-10-02 03:38:00,60.0,55.0,30.13,SSE,155,0.0,4.0,83,0.00,,,0.00,weatherlink.com 1.10,2013-10-02 07:38:00,
2013-10-02 03:53:00,59.7,55.0,30.13,SSE,155,0.0,2.0,83,0.00,,,0.00,weatherlink.com 1.10,2013-10-02 07:53:00,
2013-10-02 04:08:00,59.3,55.0,30.13,SSE,153,0.0,2.0,84,0.00,,,0.00,weatherlink.com 1.10,2013-10-02 08:08:00,
2013-10-02 04:23:00,59.0,54.0,30.13,SSE,155,0.0,1.0,84,0.00,,,0.00,weatherlink.com 1.10,2013-10-02 08:23:00,
2013-10-02 04:38:00,59.0,54.0,30.13,SSE,155,0.0,2.0,83,0.00,,,0.00,weatherlink.com 1.10,2013-10-02 08:38:00,
2013-10-02 04:53:00,59.1,54.0,30.13,SSE,155,0.0,4.0,83,0.00,,,0.00,weatherlink.com 1.10,2013-10-02 08:53:00,
2013-10-02 05:08:00,59.0,54.0,30.13,SSE,153,0.0,4.0,83,0.00,,,0.00,weatherlink.com 1.10,2013-10-02 09:08:00,
2013-10-02 05:23:00,59.2,54.0,30.13,SSE,153,0.0,4.0,82,0.00,,,0.00,weatherlink.com 1.10,2013-10-02 09:23:00,
2013-10-02 05:38:00,59.2,54.0,30.13,SSE,154,0.0,1.0,82,0.00,,,0.00,weatherlink.com 1.10,2013-10-02 09:38:00,
2013-10-02 05:54:00,59.3,54.0,30.13,SSE,153,2.0,3.0,82,0.00,,,0.00,weatherlink.com 1.10,2013-10-02 09:54:00,
2013-10-02 06:09:00,59.0,54.0,30.13,SSE,153,0.0,4.0,83,0.00,,,0.00,weatherlink.com 1.10,2013-10-02 10:09:00,
2013-10-02 06:24:00,58.8,54.0,30.14,SSE,152,0.0,3.0,83,0.00,,,0.00,weatherlink.com 1.10,2013-10-02 10:24:00,
2013-10-02 06:39:00,58.6,54.0,30.14,SSE,152,0.0,1.0,83,0.00,,,0.00,weatherlink.com 1.10,2013-10-02 10:39:00,
2013-10-02 06:54:00,58.6,53.0,30.14,SSE,152,0.0,2.0,82,0.00,,,0.00,weatherlink.com 1.10,2013-10-02 10:54:00,
2013-10-02 07:09:00,58.9,53.0,30.15,SSE,152,0.0,1.0,81,0.00,,,0.00,weatherlink.com 1.10,2013-10-02 11:09:00,
2013-10-02 07:24:00,58.8,53.0,30.15,SSE,153,0.0,1.0,81,0.00,,,0.00,weatherlink.com 1.10,2013-10-02 11:24:00,
2013-10-02 07:39:00,58.8,54.0,30.16,SSE,153,0.0,3.0,83,0.00,,,0.00,weatherlink.com 1.10,2013-10-02 11:39:00,
2013-10-02 07:54:00,59.0,54.0,30.16,SSE,150,0.0,6.0,83,0.00,,,0.00,weatherlink.com 1.10,2013-10-02 11:54:00,
2013-10-02 08:09:00,59.2,54.0,30.17,SSE,150,0.0,4.0,83,0.00,,,0.00,weatherlink.com 1.10,2013-10-02 12:09:00,
2013-10-02 08:24:00,59.7,54.0,30.17,SSE,150,0.0,1.0,82,0.00,,,0.00,weatherlink.com 1.10,2013-10-02 12:24:00,
2013-10-02 08:39:00,60.4,55.0,30.18,SSE,152,0.0,2.0,81,0.00,,,0.00,weatherlink.com 1.10,2013-10-02 12:39:00,
2013-10-02 08:54:00,61.3,55.0,30.18,SSE,152,0.0,1.0,80,0.00,,,0.00,weatherlink.com 1.10,2013-10-02 12:54:00,
2013-10-02 09:09:00,62.8,56.0,30.18,SSE,150,0.0,1.0,78,0.00,,,0.00,weatherlink.com 1.10,2013-10-02 13:09:00,
2013-10-02 09:24:00,65.3,56.0,30.19,SSE,150,0.0,2.0,73,0.00,,,0.00,weatherlink.com 1.10,2013-10-02 13:24:00,
2013-10-02 09:39:00,66.6,57.0,30.19,SSE,150,0.0,2.0,70,0.00,,,0.00,weatherlink.com 1.10,2013-10-02 13:39:00,
2013-10-02 09:54:00,67.7,57.0,30.19,SSE,153,0.0,0.0,68,0.00,,,0.00,weatherlink.com 1.10,2013-10-02 13:54:00,
2013-10-02 10:09:00,69.2,58.0,30.19,SSE,153,0.0,0.0,67,0.00,,,0.00,weatherlink.com 1.10,2013-10-02 14:09:00,
2013-10-02 10:24:00,69.7,59.0,30.19,SSE,153,0.0,0.0,69,0.00,,,0.00,weatherlink.com 1.10,2013-10-02 14:24:00,
2013-10-02 10:39:00,69.6,59.0,30.19,SSE,153,0.0,0.0,68,0.00,,,0.00,weatherlink.com 1.10,2013-10-02 14:39:00,
2013-10-02 10:54:00,69.4,57.0,30.19,SSE,153,0.0,3.0,66,0.00,,,0.00,weatherlink.com 1.10,2013-10-02 14:54:00,
2013-10-02 11:09:00,70.8,61.0,30.19,SSE,153,0.0,0.0,72,0.00,,,0.00,weatherlink.com 1.10,2013-10-02 15:09:00,
2013-10-02 11:24:00,72.0,61.0,30.19,SSE,153,0.0,3.0,68,0.00,,,0.00,weatherlink.com 1.10,2013-10-02 15:24:00,
2013-10-02 11:39:00,72.7,62.0,30.19,SSE,153,0.0,3.0,68,0.00,,,0.00,weatherlink.com 1.10,2013-10-02 15:39:00,
2013-10-02 11:54:00,74.1,59.0,30.19,SSE,153,0.0,1.0,59,0.00,,,0.00,weatherlink.com 1.10,2013-10-02 15:54:00,
2013-10-02 12:09:00,72.7,58.0,30.18,SSE,152,0.0,2.0,60,0.00,,,0.00,weatherlink.com 1.10,2013-10-02 16:09:00,
2013-10-02 12:24:00,71.0,59.0,30.18,SSE,153,0.0,0.0,67,0.00,,,0.00,weatherlink.com 1.10,2013-10-02 16:24:00,
2013-10-02 12:39:00,73.8,60.0,30.18,SSE,153,3.0,3.0,63,0.00,,,0.00,weatherlink.com 1.10,2013-10-02 16:39:00,
2013-10-02 12:54:00,71.3,61.0,30.18,SSE,156,0.0,0.0,70,0.00,,,0.00,weatherlink.com 1.10,2013-10-02 16:54:00,
2013-10-02 13:09:00,70.5,60.0,30.17,SSE,156,0.0,0.0,69,0.00,,,0.00,weatherlink.com 1.10,2013-10-02 17:09:00,
2013-10-02 13:24:00,69.2,59.0,30.17,SSE,156,0.0,0.0,69,0.00,,,0.00,weatherlink.com 1.10,2013-10-02 17:24:00,
2013-10-02 13:39:00,68.0,57.0,30.16,SSE,157,0.0,0.0,69,0.00,,,0.00,weatherlink.com 1.10,2013-10-02 17:39:00,
2013-10-02 13:54:00,68.2,60.0,30.16,SSE,156,0.0,0.0,76,0.00,,,0.00,weatherlink.com 1.10,2013-10-02 17:54:00,
2013-10-02 14:10:00,72.3,60.0,30.15,SSE,156,0.0,0.0,66,0.00,,,0.00,weatherlink.com 1.10,2013-10-02 18:10:00,
2013-10-02 14:25:00,72.5,60.0,30.15,SSE,157,0.0,4.0,66,0.00,,,0.00,weatherlink.com 1.10,2013-10-02 18:25:00,
2013-10-02 14:40:00,69.8,60.0,30.15,SSE,157,0.0,0.0,71,0.00,,,0.00,weatherlink.com 1.10,2013-10-02 18:40:00,
2013-10-02 14:55:00,69.4,59.0,30.14,SSE,157,0.0,0.0,70,0.00,,,0.00,weatherlink.com 1.10,2013-10-02 18:55:00,
2013-10-02 15:10:00,69.0,60.0,30.14,SSE,157,0.0,0.0,73,0.00,,,0.00,weatherlink.com 1.10,2013-10-02 19:10:00,
2013-10-02 15:25:00,70.5,61.0,30.14,SSE,157,0.0,4.0,72,0.00,,,0.00,weatherlink.com 1.10,2013-10-02 19:25:00,
2013-10-02 15:40:00,71.6,61.0,30.14,SSE,157,0.0,0.0,70,0.00,,,0.00,weatherlink.com 1.10,2013-10-02 19:40:00,
2013-10-02 15:55:00,71.6,62.0,30.14,SSE,157,0.0,1.0,71,0.00,,,0.00,weatherlink.com 1.10,2013-10-02 19:55:00,
2013-10-02 16:10:00,71.3,59.0,30.13,SSE,157,0.0,0.0,65,0.00,,,0.00,weatherlink.com 1.10,2013-10-02 20:10:00,
2013-10-02 16:25:00,72.8,62.0,30.13,SSE,156,0.0,0.0,70,0.00,,,0.00,weatherlink.com 1.10,2013-10-02 20:25:00,
2013-10-02 16:40:00,72.9,61.0,30.13,SSE,157,0.0,0.0,67,0.00,,,0.00,weatherlink.com 1.10,2013-10-02 20:40:00,
2013-10-02 16:55:00,72.4,61.0,30.13,SSE,156,0.0,0.0,68,0.00,,,0.00,weatherlink.com 1.10,2013-10-02 20:55:00,
2013-10-02 17:10:00,70.2,61.0,30.13,SSE,156,0.0,0.0,72,0.00,,,0.00,weatherlink.com 1.10,2013-10-02 21:10:00,
2013-10-02 17:25:00,69.6,61.0,30.13,SSE,157,0.0,0.0,73,0.00,,,0.00,weatherlink.com 1.10,2013-10-02 21:25:00,
2013-10-02 17:40:00,68.9,60.0,30.13,SSE,156,0.0,0.0,74,0.00,,,0.00,weatherlink.com 1.10,2013-10-02 21:40:00,
2013-10-02 17:55:00,68.1,60.0,30.13,SSE,156,0.0,0.0,76,0.00,,,0.00,weatherlink.com 1.10,2013-10-02 21:55:00,
2013-10-02 18:10:00,67.4,60.0,30.13,SSE,156,0.0,0.0,78,0.00,,,0.00,weatherlink.com 1.10,2013-10-02 22:10:00,
2013-10-02 18:25:00,68.3,61.0,30.14,SSE,156,0.0,0.0,77,0.00,,,0.00,weatherlink.com 1.10,2013-10-02 22:25:00,
2013-10-02 18:40:00,67.4,60.0,30.14,SSE,157,0.0,0.0,76,0.00,,,0.00,weatherlink.com 1.10,2013-10-02 22:40:00,
2013-10-02 18:55:00,65.8,59.0,30.13,SSE,156,0.0,0.0,78,0.00,,,0.00,weatherlink.com 1.10,2013-10-02 22:55:00,
2013-10-02 19:10:00,64.5,58.0,30.14,SSE,156,0.0,0.0,80,0.00,,,0.00,weatherlink.com 1.10,2013-10-02 23:10:00,
2013-10-02 19:25:00,64.1,59.0,30.14,SSE,157,0.0,0.0,82,0.00,,,0.00,weatherlink.com 1.10,2013-10-02 23:25:00,
2013-10-02 19:40:00,63.9,59.0,30.14,SSE,156,0.0,0.0,83,0.00,,,0.00,weatherlink.com 1.10,2013-10-02 23:40:00,
2013-10-02 19:55:00,63.7,58.0,30.14,SSE,156,0.0,1.0,82,0.00,,,0.00,weatherlink.com 1.10,2013-10-02 23:55:00,
2013-10-02 20:10:00,63.6,58.0,30.14,SSE,157,0.0,0.0,81,0.00,,,0.00,weatherlink.com 1.10,2013-10-03 00:10:00,
2013-10-02 20:25:00,63.5,58.0,30.14,SSE,156,0.0,0.0,81,0.00,,,0.00,weatherlink.com 1.10,2013-10-03 00:25:00,
2013-10-02 20:40:00,63.3,58.0,30.14,SSE,156,0.0,0.0,82,0.00,,,0.00,weatherlink.com 1.10,2013-10-03 00:40:00,
2013-10-02 20:55:00,63.3,58.0,30.15,SSE,156,0.0,0.0,82,0.00,,,0.00,weatherlink.com 1.10,2013-10-03 00:55:00,
2013-10-02 21:10:00,63.0,57.0,30.15,SSE,156,0.0,0.0,82,0.00,,,0.00,weatherlink.com 1.10,2013-10-03 01:10:00,
2013-10-02 21:25:00,63.1,58.0,30.15,SSE,157,0.0,1.0,84,0.00,,,0.00,weatherlink.com 1.10,2013-10-03 01:25:00,
2013-10-02 21:40:00,62.8,58.0,30.15,SSE,156,0.0,0.0,84,0.00,,,0.00,weatherlink.com 1.10,2013-10-03 01:40:00,
2013-10-02 21:55:00,62.7,58.0,30.15,SSE,156,0.0,0.0,84,0.00,,,0.00,weatherlink.com 1.10,2013-10-03 01:55:00,
2013-10-02 22:10:00,62.6,57.0,30.16,SSE,157,0.0,0.0,83,0.00,,,0.00,weatherlink.com 1.10,2013-10-03 02:10:00,
2013-10-02 22:25:00,62.5,57.0,30.16,SSE,156,0.0,1.0,83,0.00,,,0.00,weatherlink.com 1.10,2013-10-03 02:25:00,
2013-10-02 22:40:00,62.5,57.0,30.16,SSE,156,0.0,1.0,82,0.00,,,0.00,weatherlink.com 1.10,2013-10-03 02:40:00,
2013-10-02 22:55:00,62.9,57.0,30.16,SSE,156,0.0,2.0,81,0.00,,,0.00,weatherlink.com 1.10,2013-10-03 02:55:00,
2013-10-02 23:10:00,62.9,57.0,30.16,SSE,156,0.0,2.0,81,0.00,,,0.00,weatherlink.com 1.10,2013-10-03 03:10:00,
2013-10-02 23:25:00,62.6,57.0,30.16,SSE,156,0.0,2.0,82,0.00,,,0.00,weatherlink.com 1.10,2013-10-03 03:25:00,
2013-10-02 23:40:00,63.0,57.0,30.16,SSE,156,0.0,4.0,81,0.00,,,0.00,weatherlink.com 1.10,2013-10-03 03:40:00,
2013-10-02 23:55:00,63.2,57.0,30.16,SSE,153,0.0,3.0,81,0.00,,,0.00,weatherlink.com 1.10,2013-10-03 03:55:00,